Stations météo

réclame
Mon MeteoGroup
Floda, Suède (2476): Température de l'air & dewpoint: 05.12.2017 06:00:00 - 11.12.2017 06:00:00 (CET)Floda, Suède (2476): Vitesse du vent & gusts: 05.12.2017 06:00:00 - 11.12.2017 06:00:00 (CET)Floda, Suède (2476): Direction du vent: 05.12.2017 06:00:00 - 11.12.2017 06:00:00 (CET)Floda, Suède (2476): reduced air pressure: 05.12.2017 06:00:00 - 11.12.2017 06:00:00 (CET)Floda, Suède (2476): visibility: 05.12.2017 06:00:00 - 11.12.2017 06:00:00 (CET)Floda, Suède (2476): Quantités de précipitations: 05.12.2017 06:00:00 - 11.12.2017 06:00:00 (CET)
Date & Time tt [°C] td [°C] ff [km/h] ff [knt] fx [km/h] fx [knt] dd ppp [hPa] vv [km] rr [mm]
11.12.2017 06:00:00 -2,7 -3,1 4 2 9 5 ENE 991,8 3,5 0,0
11.12.2017 05:00:00 -3,4 -3,9 5 3 8 4 ENE 991,7 30 0,0
11.12.2017 04:00:00 -4,1 -4,6 0 0 9 5 N 991,4 35 0,1
11.12.2017 03:00:00 -4,5 -5,0 0 0 9 5 N 991,2 43 0,0
11.12.2017 02:00:00 -3,9 -4,6 6 3 8 4 ENE 990,8 37 0,0
11.12.2017 01:00:00 -4,1 -4,6 5 3 9 5 ENE 990,4 41 0,0
11.12.2017 00:00:00 -3,8 -4,5 5 3 9 5 ENE 990,4 49 0,0
10.12.2017 23:00:00 - - - - 8 4 - - - -
10.12.2017 22:00:00 -3,1 -4,1 4 2 12 6 E 990,1 48 0,0
10.12.2017 21:00:00 -3,2 -4,2 4 2 12 6 ESE 989,8 50 0,0
10.12.2017 20:00:00 -2,6 -3,8 5 3 12 7 E 989,6 50 0,0
10.12.2017 19:00:00 -2,1 -3,6 5 3 12 7 ESE 989,5 50 0,0
10.12.2017 18:00:00 -2,4 -3,3 6 4 12 7 ESE 989,4 50 0,0
10.12.2017 17:00:00 -1,7 -3,1 6 3 14 7 ESE 989,1 50 0,0
10.12.2017 16:00:00 -1,3 -2,7 6 4 14 7 SE 989,0 50 0,0
10.12.2017 15:00:00 -0,8 -2,4 6 4 16 9 SE 989,0 49 0,0
10.12.2017 14:00:00 0,4 -1,8 6 3 19 10 SE 989,0 41 0,0
10.12.2017 13:00:00 0,9 -1,7 8 5 19 10 SSE 989,2 41 0,0
10.12.2017 12:00:00 1,0 -1,6 9 5 18 10 S 989,1 33 0,0
10.12.2017 11:00:00 0,4 -1,7 8 4 15 8 S 989,4 38 0,0
10.12.2017 10:00:00 -0,7 -1,8 5 3 13 7 SE 989,6 42 0,0
10.12.2017 09:00:00 -0,9 -1,9 4 2 16 9 SE 989,6 37 0,0
10.12.2017 08:00:00 -0,4 -1,5 6 4 16 9 SSE 989,5 33 0,0
10.12.2017 07:00:00 0,4 -0,9 9 5 16 9 S 989,3 32 0,0
10.12.2017 06:00:00 0,8 -0,5 9 5 16 9 S 989,3 28 0,0
10.12.2017 05:00:00 0,9 -0,1 8 4 15 8 S 989,3 24 0,0
10.12.2017 04:00:00 0,8 -0,1 6 3 15 8 S 989,5 23 0,0
10.12.2017 03:00:00 - - - - 16 9 - - - -
10.12.2017 02:00:00 1,1 0,2 5 3 22 12 SSE 989,8 15 0,0
10.12.2017 01:00:00 1,4 0,1 11 6 22 12 S 989,8 37 0,0
10.12.2017 00:00:00 1,3 0,3 9 5 19 10 S 989,8 50 0,0
09.12.2017 23:00:00 1,1 0,1 6 4 18 10 SSE 989,6 50 0,0
09.12.2017 22:00:00 1,1 -0,1 8 4 18 10 S 989,5 50 0,0
09.12.2017 21:00:00 1,1 -0,1 10 5 19 10 SSW 989,4 50 0,0
09.12.2017 20:00:00 1,0 -0,3 12 6 19 10 SSW 989,0 50 0,0
09.12.2017 19:00:00 0,6 -0,4 10 5 16 9 SSW 988,7 34 0,0
09.12.2017 18:00:00 0,5 -0,4 9 5 17 9 SSW 988,3 27 0,0
09.12.2017 17:00:00 1,2 0,0 9 5 17 9 SSW 988,0 24 0,0
09.12.2017 16:00:00 1,7 0,4 9 5 17 9 SSW 987,9 27 0,0
09.12.2017 15:00:00 2,2 0,6 11 6 24 13 SSW 987,5 30 0,0
09.12.2017 14:00:00 3,0 0,9 11 6 24 13 SSW 987,0 36 0,0
09.12.2017 13:00:00 3,4 1,1 14 7 24 13 SSW 986,6 36 0,0
09.12.2017 12:00:00 3,5 1,2 15 8 27 15 SSW 986,3 39 0,0
09.12.2017 11:00:00 - - - - 27 15 - - - -
09.12.2017 10:00:00 - - - - 26 14 - - - -
09.12.2017 09:00:00 3,3 1,2 12 7 25 13 S 985,8 42 0,0
09.12.2017 08:00:00 3,1 1,1 14 8 25 13 S 985,2 43 0,0
09.12.2017 07:00:00 3,4 1,3 13 7 24 13 S 984,9 46 0,0
09.12.2017 06:00:00 3,3 1,3 13 7 26 14 S 984,6 17 0,0
09.12.2017 05:00:00 3,4 1,4 13 7 28 15 SSW 984,4 49 0,0
09.12.2017 04:00:00 3,3 1,3 14 8 28 15 SSW 984,4 48 0,0
09.12.2017 03:00:00 3,0 1,5 15 8 38 21 SSW 984,2 21 0,1
09.12.2017 02:00:00 3,2 1,6 16 9 38 21 SW 984,1 7 0,1
09.12.2017 01:00:00 3,4 1,3 19 11 36 20 SSW 983,9 48 0,0
09.12.2017 00:00:00 3,5 1,7 17 9 36 19 SSW 984,0 40 0,0
08.12.2017 23:00:00 3,4 1,8 16 8 36 19 SSW 983,8 13 0,3
08.12.2017 22:00:00 4,0 0,9 19 10 36 20 SSW 983,5 45 0,0
08.12.2017 21:00:00 4,1 0,4 18 10 48 26 SSW 983,4 39 0,0
08.12.2017 20:00:00 4,0 0,5 24 13 49 26 SSW 983,3 11 0,0
08.12.2017 19:00:00 4,9 -0,3 24 13 49 26 SSW 982,8 33 0,0
08.12.2017 18:00:00 - - - - 56 31 - - - -
08.12.2017 17:00:00 5,2 -1,1 26 14 56 31 SSW 982,3 31 0,0
08.12.2017 16:00:00 4,9 0,1 26 14 55 30 SSW 982,1 8 0,0
08.12.2017 15:00:00 5,2 -0,4 32 17 55 30 SSW 981,8 13 0,0
08.12.2017 14:00:00 5,3 -0,7 28 15 57 31 SSW 981,7 30 0,0
08.12.2017 13:00:00 5,1 -0,7 25 13 61 33 SSW 981,8 30 0,0
08.12.2017 12:00:00 5,0 -0,8 29 16 61 33 SSW 982,2 29 0,0
08.12.2017 11:00:00 4,7 -0,7 28 15 50 27 SSW 982,5 25 0,0
08.12.2017 10:00:00 4,7 -0,3 27 15 50 27 SSW 982,7 29 0,0
08.12.2017 09:00:00 - - - - 47 26 - - - -
08.12.2017 08:00:00 5,1 -0,1 29 16 47 25 SSW 982,4 42 0,0
08.12.2017 07:00:00 5,4 0,4 21 12 36 19 SSW 982,8 39 0,0
08.12.2017 06:00:00 5,1 0,3 20 11 34 18 S 982,7 27 0,0
08.12.2017 05:00:00 4,9 0,3 18 10 34 18 SSW 983,2 25 0,0
08.12.2017 04:00:00 5,1 1,2 19 10 29 16 SSW 983,8 26 0,0
08.12.2017 03:00:00 - - - - 33 18 - - - -
08.12.2017 02:00:00 5,6 2,9 16 9 35 19 S 985,3 50 0,0
08.12.2017 01:00:00 5,6 3,1 18 10 37 20 S 985,6 50 0,0
08.12.2017 00:00:00 5,8 3,1 17 9 38 21 SSW 986,2 50 0,0
07.12.2017 23:00:00 6,3 3,1 20 11 41 22 SSW 986,7 50 0,0
07.12.2017 22:00:00 6,3 3,3 21 11 41 22 SSW 987,4 50 0,0
07.12.2017 21:00:00 - - - - 41 22 - - - -
07.12.2017 20:00:00 6,2 3,4 17 9 41 22 SSW 988,7 50 0,0
07.12.2017 19:00:00 6,2 3,5 22 12 40 22 SSW 989,4 50 0,0
07.12.2017 18:00:00 6,3 4,0 23 12 38 21 SSW 990,2 50 0,0
07.12.2017 17:00:00 6,6 4,6 23 13 38 21 SSW 990,8 22 0,1
07.12.2017 16:00:00 7,1 5,1 20 11 37 20 SSW 991,8 46 0,0
07.12.2017 15:00:00 7,5 5,8 20 11 35 19 SSW 992,8 45 0,0
07.12.2017 14:00:00 7,7 6,0 18 10 31 17 SW 993,5 50 0,0
07.12.2017 13:00:00 7,4 6,2 17 9 36 19 SSW 994,4 50 0,0
07.12.2017 12:00:00 7,2 6,1 18 10 36 19 SW 995,4 44 0,1
07.12.2017 11:00:00 7,0 5,9 19 10 30 16 SSW 996,0 50 0,0
07.12.2017 10:00:00 6,4 6,1 16 8 26 14 SSW 996,9 30 0,0
07.12.2017 09:00:00 5,2 5,1 9 5 14 8 S 997,6 9 0,3
07.12.2017 08:00:00 4,2 4,1 8 5 14 8 S 998,3 4,1 0,1
07.12.2017 07:00:00 - - - - 12 7 - - - -
07.12.2017 06:00:00 1,0 0,9 6 3 11 6 ESE 999,6 1,2 0,4
07.12.2017 05:00:00 0,8 0,7 5 3 11 6 ESE 1000,3 2,3 0,0
07.12.2017 04:00:00 0,7 0,4 6 3 16 9 ESE 1001,3 5 0,3
07.12.2017 03:00:00 0,6 0,3 4 2 16 9 E 1002,3 1,6 1,0
07.12.2017 02:00:00 0,4 0,1 9 5 19 10 ESE 1003,1 1,9 1,6
07.12.2017 01:00:00 0,2 -0,1 12 7 19 10 ESE 1003,8 3,1 1,6
07.12.2017 00:00:00 -0,3 -0,7 10 5 17 9 E 1004,7 4,6 1,4
06.12.2017 23:00:00 -0,8 -1,2 8 4 17 9 E 1005,7 2,9 0,6
06.12.2017 22:00:00 -1,1 -1,7 5 3 8 4 E 1006,7 4,9 0,3
06.12.2017 21:00:00 -1,4 -2,2 3 2 11 6 E 1007,5 6 0,0
06.12.2017 20:00:00 -1,8 -2,5 4 2 11 6 SE 1007,9 24 0,0
06.12.2017 19:00:00 -2,0 -2,7 0 0 5 3 N 1008,5 25 0,0
06.12.2017 18:00:00 -2,4 -3,0 2 1 4 2 S 1008,7 23 0,0
06.12.2017 17:00:00 - - - - 4 2 - - - -
06.12.2017 16:00:00 -2,9 -3,6 0 0 3 2 N 1008,9 36 0,0
06.12.2017 15:00:00 -2,4 -3,0 0 0 3 2 N 1008,7 39 0,0
06.12.2017 14:00:00 -1,9 -2,7 0 0 4 2 N 1009,2 48 0,0
06.12.2017 13:00:00 -1,3 -2,4 0 0 4 2 N 1009,1 50 0,0
06.12.2017 12:00:00 -1,4 -2,4 4 2 4 2 W 1009,5 50 0,0
06.12.2017 11:00:00 -2,1 -2,9 2 1 4 2 ESE 1009,3 50 0,0
06.12.2017 10:00:00 -2,7 -3,5 0 0 4 2 N 1009,6 50 0,0
06.12.2017 09:00:00 -3,1 -3,9 0 0 10 6 N 1009,7 50 0,0
06.12.2017 08:00:00 - - - - 10 6 - - - -
06.12.2017 07:00:00 -2,8 -3,8 4 2 5 3 W 1009,4 50 0,0
06.12.2017 06:00:00 -2,9 -3,7 3 2 6 3 WNW 1009,4 50 0,0
06.12.2017 05:00:00 -3,6 -4,3 4 2 6 3 WNW 1009,4 50 0,0
06.12.2017 04:00:00 -4,2 -4,9 2 1 5 3 WSW 1009,8 50 0,0
06.12.2017 03:00:00 -3,8 -4,6 3 2 8 4 WSW 1010,3 50 0,0
06.12.2017 02:00:00 -3,3 -4,3 4 2 8 4 WNW 1010,3 50 0,0
06.12.2017 01:00:00 -3,6 -4,6 4 2 8 5 WNW 1010,1 50 0,0
06.12.2017 00:00:00 -3,0 -4,0 6 3 12 7 WNW 1010,1 50 0,0
05.12.2017 23:00:00 -1,7 -3,1 7 4 12 7 NW 1009,7 50 0,0
05.12.2017 22:00:00 -2,2 -3,3 5 3 11 6 WNW 1009,5 50 0,0
05.12.2017 21:00:00 -2,0 -3,3 6 3 13 7 WNW 1008,9 50 0,0
05.12.2017 20:00:00 -1,5 -2,5 6 3 13 7 W 1008,5 50 0,0
05.12.2017 19:00:00 -0,6 -1,7 9 5 20 11 WNW 1008,0 50 0,0
05.12.2017 18:00:00 0,6 -0,7 6 3 20 11 WNW 1007,0 50 0,0
05.12.2017 17:00:00 - - - - 13 7 - - - -
05.12.2017 16:00:00 - - - - 6 3 - - - -
05.12.2017 15:00:00 - - - - 10 5 - - - -
05.12.2017 14:00:00 1,9 1,0 3 2 15 8 SW 1004,8 49 0,0
05.12.2017 13:00:00 1,7 0,8 6 3 16 9 WSW 1005,3 41 0,0
05.12.2017 12:00:00 1,3 0,6 8 5 16 9 SW 1006,2 35 0,0
05.12.2017 11:00:00 0,1 -0,6 9 5 15 8 S 1007,3 24 0,0
05.12.2017 10:00:00 -1,0 -2,1 10 5 14 8 SSW 1008,7 45 0,0
05.12.2017 09:00:00 -3,2 -3,9 5 3 7 4 S 1009,5 40 0,0
05.12.2017 08:00:00 -3,6 -4,3 3 2 7 4 SE 1010,5 50 0,0
05.12.2017 07:00:00 -4,6 -5,3 4 2 6 4 SE 1011,3 44 0,0
05.12.2017 06:00:00 -5,0 -5,8 0 0 9 5 N 1012,3 50 0,0

tt = Température de l'air
td = dewpoint
ff = Vitesse du vent
fx = gusts
dd = Direction du vent
ppp = reduced air pressure
vv = visibility
rr = Quantités de précipitations

stations d'obs. à proximité